Probability
23 26 31 36 43 54 64 72 74 75 78 80 81 81 76 74 72 66 60 55 50 47 46 45 43 37 33 31 27 24 20 20 23 23 20 16 17 23 26 23 20 17 16
20 22 26 29 33 43 53 59 61 63 67 71 72 70 65 65 64 61 57 50 45 41 39 40 37 33 30 28 26 23 20 18 19 20 18 15 16 20 21 21 19 17 17
12 15 18 20 23 29 37 43 47 50 53 56 56 54 52 52 54 56 54 46 40 34 31 30 28 27 26 23 21 20 18 16 16 17 17 16 17 18 18 18 17 16 19
6 8 12 16 19 20 24 31 38 44 46 46 46 45 43 43 45 47 46 42 36 29 23 21 21 23 23 21 19 18 18 17 16 17 18 20 21 19 16 15 15 16 18
4 6 10 15 17 16 17 25 35 42 45 45 45 44 40 36 36 37 37 36 32 25 18 17 19 20 21 21 20 21 21 21 21 21 23 24 23 19 16 13 12 14 14
6 8 12 15 16 15 18 25 37 44 46 45 44 43 39 35 32 31 30 30 28 23 17 15 17 17 16 17 19 20 21 22 22 23 26 28 27 24 22 18 14 14 16
7 9 11 14 14 16 19 27 38 47 48 43 40 39 38 34 29 26 25 24 22 20 17 15 15 15 12 12 14 15 16 17 19 19 22 26 29 29 30 29 24 22 22
4 5 6 8 10 12 16 23 32 41 43 38 35 35 35 29 23 21 21 19 17 17 17 15 14 14 11 9 10 11 11 13 15 13 15 21 26 29 33 36 34 30 27
1 1 2 4 6 8 11 16 23 28 30 30 29 28 29 26 22 19 18 17 18 18 18 17 16 14 11 9 9 8 8 11 11 9 9 14 20 25 31 35 36 33 27
1 1 1 2 3 4 8 11 15 18 19 22 23 23 25 26 24 21 20 23 25 24 22 21 20 16 12 9 8 7 7 7 5 3 4 6 11 18 24 29 32 32 30
2 1 1 1 1 1 4 7 9 10 11 14 18 20 20 21 21 20 22 26 30 29 26 24 22 18 13 10 8 6 5 4 2 1 1 1 4 10 15 21 26 30 32
1 1 0 0 0 0 1 2 3 3 4 7 11 14 15 15 14 15 17 21 25 26 25 22 19 15 13 11 9 6 3 2 1 0 0 0 1 3 8 12 18 24 28
0 0 0 0 0 0 0 0 1 1 1 3 4 7 10 11 11 10 11 15 17 17 17 18 15 11 10 9 8 6 4 2 0 0 0 0 0 1 3 6 10 15 18
0 0 0 0 0 0 0 0 0 0 0 1 1 4 5 6 7 6 8 10 10 8 8 11 13 9 6 6 7 6 5 3 1 1 0 0 0 1 2 2 4 8 12
0 0 0 0 0 0 0 0 0 0 0 0 1 2 2 2 2 2 3 4 4 3 5 8 8 6 3 3 5 5 4 4 4 3 1 0 0 0 0 0 1 4 7
0 0 0 0 0 0 0 0 0 0 0 0 0 1 1 0 0 0 0 1 1 1 3 6 6 4 2 2 2 3 3 4 6 5 3 1 0 0 0 0 0 1 2
0 0 0 0 0 0 0 0 0 0 0 0 0 0 0 0 0 0 0 0 0 0 1 3 3 3 2 1 0 1 1 3 5 6 4 1 0 0 0 0 0 0 0
0 0 0 0 0 0 0 0 0 0 0 0 0 0 0 0 0 0 0 0 0 0 0 1 1 1 1 0 0 0 0 1 3 4 3 1 0 0 0 0 0 0 0
0 0 0 0 0 0 0 0 0 0 0 0 0 0 0 0 0 0 0 0 0 0 0 0 0 0 0 0 0 0 0 0 1 2 1 0 0 0 0 0 0 0 0
0 0 0 0 0 0 0 0 0 0 0 0 0 0 0 0 0 0 0 0 0 0 0 0 0 0 0 0 0 0 0 0 1 1 1 0 0 0 0 0 0 0 0
0 0 0 0 0 0 0 0 0 0 0 0 0 0 0 0 0 0 0 0 0 0 0 0 0 0 0 0 0 0 0 0 0 0 0 0 0 0 0 0 0 0 0
0 0 0 0 0 0 0 0 0 0 0 0 0 0 0 0 0 0 0 0 0 0 0 0 0 0 0 0 0 0 0 0 0 0 0 0 0 0 0 0 0 0 0
0 0 0 0 0 0 0 0 0 0 0 0 0 0 0 0 0 0 0 0 0 0 0 0 0 0 0 0 0 0 0 0 0 0 0 0 0 0 0 0 0 0 0
0 0 0 0 0 0 0 0 0 0 0 0 0 0 0 0 0 0 0 0 0 0 0 0 0 0 0 0 0 0 0 0 0 0 0 0 0 0 0 0 0 0 0
0 0 0 0 0 0 1 0 0 0 0 0 0 0 0 0 0 0 0 0 0 0 0 0 0 0 0 0 0 0 0 0 0 0 0 0 0 0 0 0 0 0 0
0 0 0 0 0 0 1 0 0 0 0 0 0 0 0 0 0 0 0 0 0 0 0 0 0 0 0 0 0 0 0 0 0 0 0 0 0 0 0 0 0 0 0
Wind_Speed
8 7 8 8 8 7 6 5 4 3 1 1 1 1 1 2 2 2 2 3 4 4 4 4 3 4 5 6 6 4 5 5 5 5 5 5 7 6 5 6 6 7 10
7 7 6 6 6 6 5 3 3 2 2 2 1 1 2 3 3 2 1 2 3 3 4 4 4 4 4 6 5 5 4 4 5 4 4 4 4 5 9 6 6 5 5
7 6 5 5 5 4 3 3 3 2 2 3 2 2 2 2 1 1 1 1 2 2 3 3 3 4 4 4 5 6 6 5 4 5 4 3 3 2 4 6 6 5 4
6 5 4 4 3 2 2 1 0 1 2 3 3 4 4 3 3 2 1 2 2 2 3 3 3 3 3 3 4 4 4 4 4 4 4 3 1 1 1 2 4 5 5
4 3 3 3 1 1 1 2 1 1 2 3 4 4 5 4 3 3 3 3 3 3 3 3 2 2 2 3 3 3 3 3 4 3 3 4 3 3 2 3 3 3 4
3 3 1 1 1 1 1 1 1 2 2 4 5 5 5 5 6 5 5 4 3 3 3 3 2 2 1 2 2 3 3 3 3 3 3 3 2 3 3 3 3 4 4
2 1 1 1 1 2 1 2 2 2 3 4 5 5 6 6 7 7 6 5 4 3 3 2 1 1 1 2 2 2 3 3 3 3 3 3 3 3 2 2 2 3 2
3 2 3 2 3 4 2 2 3 3 3 4 5 5 6 6 6 7 5 5 4 4 3 3 3 3 3 3 1 2 2 2 3 4 3 3 3 3 2 2 2 2 1
6 6 6 6 6 6 4 4 4 4 4 5 6 6 6 6 7 7 7 6 5 6 4 3 3 4 4 3 2 3 3 2 2 3 3 3 3 2 3 2 1 2 2
8 8 8 7 6 6 6 6 6 5 5 6 6 8 6 6 7 7 8 7 7 7 7 6 6 5 5 5 4 3 3 3 3 2 2 3 3 2 2 1 1 1 2
10 9 9 9 9 9 9 8 8 7 7 7 6 7 7 7 7 6 7 7 7 7 7 7 7 7 7 6 6 5 5 5 4 4 3 3 3 2 2 2 2 2 1
11 11 11 11 10 10 10 9 9 8 8 7 7 7 7 7 8 9 8 8 8 8 8 7 8 8 8 7 8 8 7 6 6 5 4 4 3 3 2 2 2 2 2
10 10 9 9 9 10 10 10 9 10 10 9 10 9 8 8 9 9 9 8 9 9 8 8 8 8 8 8 8 8 8 7 6 6 5 4 4 4 2 2 2 2 2
9 10 8 8 9 9 9 10 10 10 11 10 11 10 9 9 9 9 9 9 9 9 9 9 9 8 9 9 9 9 8 8 7 6 6 5 5 4 4 3 3 2 2
12 12 10 9 9 10 9 10 10 10 10 11 11 10 10 10 10 9 9 9 9 11 8 9 9 8 9 10 10 8 10 9 9 8 7 7 7 7 6 5 3 2 2
13 13 12 12 11 11 11 11 10 10 10 11 12 11 10 11 10 10 10 9 8 9 8 8 9 9 11 10 9 8 8 7 8 8 8 8 8 9 10 8 7 5 3
13 13 13 12 10 10 10 11 11 11 11 11 12 12 12 12 11 12 11 10 10 9 9 9 8 9 9 10 9 9 6 7 7 8 7 9 9 10 9 10 12 10 9
13 13 12 12 11 11 11 11 12 12 11 12 12 12 12 12 12 11 11 10 9 8 9 9 9 8 9 10 10 10 8 9 8 7 8 7 6 7 7 8 8 8 8
12 11 12 12 11 11 12 12 13 12 12 12 12 13 12 13 12 12 10 9 9 9 9 8 9 9 9 10 11 12 8 8 8 8 8 8 8 10 10 7 7 7 6
11 11 11 12 11 11 11 12 13 13 13 13 13 13 12 12 12 11 10 9 8 9 9 9 8 9 9 10 12 13 7 7 7 6 7 9 10 11 12 8 7 7 6
11 11 11 11 10 11 11 12 13 13 13 14 13 13 12 12 11 9 8 8 8 8 8 9 8 8 8 8 11 13 7 6 6 6 6 6 12 13 14 11 7 7 5
12 13 11 10 10 10 11 12 13 13 13 13 13 13 12 11 10 9 8 8 8 8 7 7 6 5 5 6 8 12 11 8 5 5 4 4 8 12 13 10 8 8 6
12 11 12 12 10 10 10 12 12 13 13 14 13 12 12 10 9 8 8 7 6 5 5 5 4 4 3 4 8 11 12 11 5 3 2 3 6 8 8 10 10 8 5
11 11 12 12 12 11 11 11 11 11 13 14 13 11 10 9 8 6 6 5 5 5 5 4 4 3 2 1 3 4 6 8 7 5 4 6 7 6 6 7 8 7 6
10 10 11 11 12 12 12 11 11 12 13 13 12 11 9 8 7 6 5 5 4 4 5 4 3 3 1 1 0 1 3 4 4 4 4 5 5 6 6 6 7 8 8
10 10 11 12 12 12 12 11 11 12 12 11 11 9 8 7 6 6 5 4 4 4 4 3 3 2 1 1 2 3 2 2 3 3 4 5 6 7 7 7 7 7 7
Wind_Direction
83 71 64 63 66 64 65 62 57 50 38 19 335 331 307 296 278 258 255 273 279 282 275 272 264 250 248 248 242 233 240 240 235 240 253 242 227 214 214 215 217 209 202
102 90 85 80 73 68 62 65 49 33 18 16 326 272 285 286 276 289 287 268 277 282 278 272 266 257 259 260 251 237 236 245 232 219 237 243 231 218 215 200 204 220 198
110 105 95 90 88 77 63 50 33 13 356 338 309 309 281 266 280 299 267 272 285 282 275 284 281 272 259 256 248 240 228 233 240 229 227 229 226 214 208 199 194 193 190
116 119 120 111 110 117 120 111 17 352 333 319 315 313 300 299 307 288 286 281 264 259 262 265 274 281 277 275 267 244 228 228 238 244 242 243 251 241 209 225 184 181 189
119 117 119 133 147 195 199 181 178 252 280 292 294 298 302 308 309 307 289 278 264 241 240 247 258 275 284 294 296 287 245 229 236 240 245 246 237 232 208 215 192 185 187
115 116 115 141 217 259 284 281 221 242 273 282 290 290 293 297 300 297 289 273 256 239 231 234 228 251 271 292 298 295 271 256 257 266 267 259 241 232 224 206 200 197 200
93 74 28 317 274 280 295 304 303 285 275 277 280 286 291 291 282 277 274 273 270 256 230 237 224 255 270 269 275 276 269 260 257 259 268 271 267 268 254 230 218 200 191
36 1 332 321 311 305 300 299 302 296 290 287 285 281 279 277 278 282 296 295 287 286 258 228 221 237 252 267 272 275 268 264 257 261 269 269 265 267 261 251 244 219 214
2 355 347 342 339 338 338 331 321 310 304 292 285 273 266 271 279 289 286 280 278 280 271 246 234 233 235 243 245 256 259 253 262 267 271 266 253 261 264 259 251 204 206
359 353 349 351 353 346 341 343 339 330 318 310 298 298 294 285 276 273 273 272 275 277 272 253 245 238 233 230 229 243 243 238 237 233 254 269 270 270 269 264 267 253 204
353 349 351 355 353 347 343 342 338 332 325 316 309 303 297 291 288 281 278 276 271 268 267 258 249 239 233 225 221 227 232 225 232 231 225 236 254 266 277 262 237 239 231
352 353 353 353 348 343 339 334 331 325 321 318 314 308 307 307 302 297 293 291 284 272 264 259 256 250 241 228 222 224 227 219 220 220 220 226 235 230 253 266 256 234 223
355 352 352 348 342 339 335 331 326 323 323 321 317 313 309 306 300 296 292 290 289 285 278 265 256 253 250 242 234 227 222 218 217 213 211 217 226 229 229 238 253 251 241
355 352 352 346 343 335 333 329 326 328 326 324 317 311 309 304 298 296 293 289 285 284 280 274 264 257 254 247 239 229 223 221 219 213 207 206 213 221 220 228 230 238 242
352 349 347 344 339 337 334 330 329 328 324 318 312 309 308 305 302 298 294 290 287 286 283 280 272 261 255 251 247 236 229 219 216 211 208 211 208 207 210 221 213 228 227
347 345 342 340 338 335 331 330 327 324 321 315 311 310 309 307 302 298 294 292 289 284 280 277 274 268 262 258 251 246 246 229 218 211 207 214 206 204 206 208 210 213 227
346 344 341 337 334 333 334 328 325 323 317 312 311 311 311 308 304 302 301 298 296 291 285 277 272 264 260 262 259 242 244 242 227 213 204 222 221 196 196 205 212 217 223
345 341 336 333 334 337 335 329 326 321 317 315 315 316 315 311 309 305 298 294 291 286 283 280 276 267 258 247 238 235 237 244 234 219 205 207 227 216 199 202 208 209 213
344 338 335 335 336 336 335 329 323 323 321 320 319 318 315 311 307 303 299 297 292 287 281 277 271 265 258 239 224 219 227 229 230 228 220 206 210 215 205 204 211 212 215
342 339 339 337 336 337 334 327 325 325 324 323 320 316 312 309 304 300 298 296 290 282 280 275 266 261 255 234 216 208 222 223 222 221 226 221 215 207 201 203 209 212 213
342 345 342 336 336 336 333 328 327 326 326 321 316 312 309 307 302 301 299 295 290 285 281 280 272 262 252 235 214 204 215 218 219 221 216 219 211 205 198 201 207 209 208
345 344 338 335 336 337 335 330 328 327 324 320 316 313 310 311 314 310 303 300 295 290 285 281 278 265 245 228 210 202 211 223 226 223 222 210 198 196 196 200 207 198 196
343 341 338 334 337 340 337 330 328 326 324 321 319 316 314 313 312 310 308 307 302 297 293 289 286 279 251 218 205 203 210 219 228 230 212 187 177 180 194 208 201 192 203
341 340 338 337 339 340 335 332 330 328 325 322 321 319 317 319 320 316 314 314 313 310 306 304 300 292 270 222 185 195 203 208 217 223 201 189 186 197 205 190 197 205 213
340 339 339 336 337 337 335 336 335 331 327 323 323 321 320 322 318 321 322 317 318 307 297 306 310 315 322 22 35 213 205 202 199 194 196 200 193 205 210 207 199 201 207
340 339 339 338 337 336 335 337 338 334 328 324 324 321 322 326 324 322 324 317 293 282 269 271 292 323 38 61 92 116 122 120 141 189 210 212 213 213 213 210 208 204 206